TimeEDT,TemperatureF,Dew PointF,Humidity,Sea Level PressureIn,VisibilityMPH,Wind Direction,Wind SpeedMPH,Gust SpeedMPH,PrecipitationIn,Events,Conditions,WindDirDegrees,DateUTC
12:15 AM,54.0,50.9,89,30.13,10.0,NE,4.6,-,N/A,,Overcast,40,2012-10-08 04:15:00
12:35 AM,54.0,50.9,89,30.14,10.0,NNE,4.6,-,N/A,,Overcast,30,2012-10-08 04:35:00
12:55 AM,54.0,50.7,89,30.14,10.0,Calm,Calm,-,N/A,,Overcast,0,2012-10-08 04:55:00
1:15 AM,53.8,50.9,90,30.14,10.0,NNE,3.5,-,N/A,,Mostly Cloudy,20,2012-10-08 05:15:00
1:35 AM,53.8,50.9,90,30.14,10.0,NNE,4.6,-,N/A,,Overcast,30,2012-10-08 05:35:00
1:55 AM,53.8,50.9,90,30.15,10.0,NNE,3.5,-,N/A,,Overcast,20,2012-10-08 05:55:00
2:15 AM,54.0,51.1,90,30.15,10.0,NNE,5.8,-,N/A,,Overcast,20,2012-10-08 06:15:00
2:35 AM,53.8,51.1,91,30.14,10.0,Calm,Calm,-,N/A,,Overcast,0,2012-10-08 06:35:00
2:55 AM,53.8,51.1,91,30.13,10.0,NNE,3.5,-,N/A,,Overcast,30,2012-10-08 06:55:00
3:15 AM,53.8,51.1,91,30.13,10.0,NNE,5.8,-,N/A,,Overcast,30,2012-10-08 07:15:00
3:35 AM,53.8,50.9,90,30.13,10.0,NNE,4.6,-,N/A,,Overcast,20,2012-10-08 07:35:00
3:55 AM,54.0,50.5,88,30.12,10.0,NNE,5.8,-,N/A,,Overcast,20,2012-10-08 07:55:00
4:15 AM,54.0,50.4,88,30.11,10.0,North,4.6,-,N/A,,Overcast,360,2012-10-08 08:15:00
4:35 AM,54.0,50.2,87,30.11,10.0,NNE,6.9,-,N/A,,Overcast,30,2012-10-08 08:35:00
4:55 AM,54.0,50.2,87,30.11,10.0,NNE,6.9,-,N/A,,Overcast,30,2012-10-08 08:55:00
5:15 AM,54.0,50.2,87,30.13,10.0,NE,5.8,-,N/A,,Overcast,40,2012-10-08 09:15:00
5:55 AM,53.8,50.2,88,30.12,10.0,NNE,4.6,-,N/A,,Mostly Cloudy,30,2012-10-08 09:55:00
6:15 AM,53.8,50.2,88,30.14,10.0,NE,4.6,-,N/A,,Overcast,40,2012-10-08 10:15:00
6:35 AM,54.0,50.0,86,30.15,10.0,NNE,5.8,-,N/A,,Overcast,20,2012-10-08 10:35:00
6:55 AM,54.1,50.0,86,30.15,10.0,NNE,3.5,-,N/A,,Overcast,30,2012-10-08 10:55:00
7:15 AM,54.0,50.0,86,30.15,10.0,NNE,8.1,-,N/A,,Overcast,20,2012-10-08 11:15:00
7:35 AM,54.0,49.6,85,30.16,10.0,NNE,6.9,-,N/A,,Overcast,20,2012-10-08 11:35:00
7:55 AM,54.0,49.6,85,30.17,10.0,NE,6.9,-,N/A,,Overcast,40,2012-10-08 11:55:00
8:15 AM,54.0,49.3,84,30.18,10.0,NE,6.9,-,N/A,,Overcast,40,2012-10-08 12:15:00
8:35 AM,54.1,48.7,82,30.18,10.0,NE,5.8,-,N/A,,Overcast,50,2012-10-08 12:35:00
8:55 AM,54.3,48.7,81,30.17,10.0,NE,5.8,-,N/A,,Overcast,40,2012-10-08 12:55:00
9:15 AM,54.5,48.4,80,30.18,10.0,NE,10.4,-,N/A,,Overcast,50,2012-10-08 13:15:00
9:35 AM,54.5,47.3,77,30.18,10.0,ENE,8.1,-,N/A,,Overcast,60,2012-10-08 13:35:00
9:55 AM,54.7,46.9,75,30.17,10.0,ENE,10.4,18.4,N/A,,Overcast,60,2012-10-08 13:55:00
10:15 AM,54.3,46.6,75,30.16,10.0,NE,6.9,16.1,N/A,,Overcast,50,2012-10-08 14:15:00
10:55 AM,52.0,49.1,90,30.19,1.0,NE,6.9,-,0.30,Rain,Heavy Rain,50,2012-10-08 14:55:00
11:15 AM,51.1,49.8,95,30.18,2.0,NNE,5.8,-,0.13,Rain,Heavy Rain,20,2012-10-08 15:15:00
11:35 AM,50.9,50.2,97,30.17,5.0,NNE,5.8,-,0.15,Rain,Light Rain,30,2012-10-08 15:35:00
11:55 AM,50.9,50.7,99,30.17,2.0,NNE,6.9,-,0.25,Rain,Heavy Rain,20,2012-10-08 15:55:00
12:15 PM,50.7,50.4,99,30.16,4.0,NNE,6.9,-,0.08,Rain,Heavy Rain,30,2012-10-08 16:15:00
12:35 PM,50.2,50.0,99,30.17,1.0,North,8.1,-,0.45,Rain,Heavy Rain,10,2012-10-08 16:35:00
12:55 PM,50.0,49.8,99,30.17,5.0,NE,8.1,-,0.55,Rain,Rain,50,2012-10-08 16:55:00
1:15 PM,50.2,50.0,99,30.18,2.0,North,4.6,-,0.08,Rain,Heavy Rain,360,2012-10-08 17:15:00
1:35 PM,50.5,50.4,99,30.17,5.0,Calm,Calm,-,0.10,Rain,Light Rain,0,2012-10-08 17:35:00
1:55 PM,50.9,50.9,100,30.15,7.0,North,6.9,-,0.10,,Overcast,10,2012-10-08 17:55:00
2:15 PM,50.9,50.5,99,30.14,5.0,North,9.2,-,0.02,Rain,Heavy Rain,360,2012-10-08 18:15:00
2:35 PM,50.2,49.5,97,30.14,2.5,NNE,9.2,-,0.17,Rain,Rain,20,2012-10-08 18:35:00
2:55 PM,50.4,49.8,98,30.13,5.0,NNE,6.9,-,0.18,,Overcast,20,2012-10-08 18:55:00
3:15 PM,50.7,50.2,98,30.12,10.0,NNE,9.2,-,N/A,,Overcast,30,2012-10-08 19:15:00
3:35 PM,50.9,50.0,97,30.12,10.0,NNE,9.2,-,N/A,,Overcast,30,2012-10-08 19:35:00
4:15 PM,51.1,49.5,94,30.11,10.0,NNE,8.1,-,N/A,,Overcast,20,2012-10-08 20:15:00
4:35 PM,50.7,49.1,94,30.12,10.0,North,4.6,-,N/A,,Overcast,10,2012-10-08 20:35:00
4:55 PM,50.9,49.5,95,30.12,10.0,NNE,4.6,-,N/A,,Overcast,20,2012-10-08 20:55:00
5:15 PM,50.9,49.3,94,30.13,10.0,North,9.2,-,N/A,,Overcast,10,2012-10-08 21:15:00
5:35 PM,50.7,48.9,94,30.12,10.0,NNE,5.8,-,N/A,,Overcast,20,2012-10-08 21:35:00
5:55 PM,50.9,49.1,94,30.12,10.0,North,8.1,-,N/A,,Overcast,10,2012-10-08 21:55:00
6:15 PM,50.9,49.1,94,30.13,10.0,NNE,5.8,-,N/A,,Overcast,30,2012-10-08 22:15:00
6:35 PM,50.7,49.1,94,30.13,10.0,NNE,8.1,-,N/A,,Overcast,20,2012-10-08 22:35:00
6:55 PM,50.7,49.3,95,30.14,10.0,North,6.9,-,N/A,,Overcast,360,2012-10-08 22:55:00
7:15 PM,50.4,49.3,96,30.14,7.0,North,6.9,-,N/A,,Overcast,10,2012-10-08 23:15:00
7:35 PM,50.2,49.5,97,30.13,5.0,North,4.6,-,N/A,,Overcast,10,2012-10-08 23:35:00
7:55 PM,50.0,49.6,99,30.13,5.0,North,8.1,-,N/A,,Overcast,10,2012-10-08 23:55:00
8:15 PM,50.0,49.5,98,30.14,5.0,NNE,4.6,-,N/A,,Overcast,30,2012-10-09 00:15:00
8:35 PM,49.8,49.5,99,30.13,7.0,NNE,8.1,-,N/A,,Overcast,20,2012-10-09 00:35:00
9:15 PM,49.6,49.1,98,30.14,10.0,North,6.9,-,N/A,,Overcast,10,2012-10-09 01:15:00
10:15 PM,49.6,48.6,96,30.15,7.0,North,9.2,-,N/A,,Overcast,350,2012-10-09 02:15:00
10:35 PM,49.5,48.4,96,30.15,7.0,North,6.9,-,N/A,,Overcast,360,2012-10-09 02:35:00
10:55 PM,49.5,48.4,96,30.15,7.0,North,4.6,-,N/A,,Overcast,360,2012-10-09 02:55:00
11:15 PM,49.3,48.6,97,30.15,5.0,North,6.9,-,N/A,,Overcast,350,2012-10-09 03:15:00
11:35 PM,49.1,48.6,98,30.15,3.0,North,6.9,-,N/A,,Overcast,350,2012-10-09 03:35:00
11:55 PM,49.1,48.7,99,30.15,2.0,NNW,8.1,-,N/A,,Overcast,340,2012-10-09 03:55:00